Probability
0 0 0 0 0 0 0 0 0 0 0 0 0 0 0 0 0 0 0 0 0 0 0 0 0 0 0 0 0 0 0 0 0 0 0 0 0 0 0 0 0 0 6 6
0 0 0 0 0 0 0 0 0 0 0 0 0 0 0 0 0 0 0 0 0 0 0 0 0 0 0 0 0 0 0 0 0 0 0 0 0 0 0 0 0 0 0 3
0 0 0 0 0 0 0 0 0 0 0 0 0 0 0 0 0 0 0 0 0 0 0 0 0 0 0 0 0 0 0 0 0 0 0 0 0 0 0 0 0 0 0 0
0 0 0 0 0 0 0 0 0 0 0 0 0 0 0 0 0 0 0 0 0 0 0 0 0 0 0 0 0 0 0 0 0 0 0 0 0 0 0 0 0 0 0 0
0 0 0 0 0 0 0 0 0 0 0 0 0 0 0 0 0 0 0 0 0 0 0 0 0 0 0 0 0 0 0 0 0 0 0 0 0 0 0 0 0 0 0 0
0 0 0 0 0 0 0 0 0 0 0 0 0 0 0 0 0 0 0 0 0 0 0 0 0 0 0 0 0 0 0 0 0 0 0 0 0 0 0 0 0 0 0 0
0 0 0 0 0 0 0 0 0 0 0 0 0 0 0 0 0 0 0 0 0 0 0 0 0 0 0 0 0 0 0 0 0 0 0 0 0 0 0 0 0 0 0 0
0 0 0 0 0 0 0 0 0 0 0 0 0 0 0 0 0 0 0 0 0 0 0 0 0 0 0 0 0 0 0 0 0 0 0 0 0 0 0 0 0 0 0 0
0 0 0 0 0 0 0 0 0 0 0 0 0 0 0 0 0 0 0 0 0 0 0 0 0 0 0 0 0 0 0 0 0 0 0 0 0 0 0 0 0 0 0 0
0 0 0 0 0 0 0 0 0 0 0 0 0 0 0 0 0 0 0 0 0 0 0 0 0 0 0 0 0 0 0 0 0 0 0 0 0 0 0 0 0 0 0 0
0 0 0 0 0 0 0 0 0 0 0 0 0 0 0 0 0 0 0 0 0 0 0 0 0 0 0 0 0 0 0 0 0 0 0 0 0 0 0 0 0 0 0 0
0 0 0 0 0 0 0 0 0 0 0 0 0 0 0 0 0 0 0 0 0 0 0 0 0 0 0 0 0 0 0 0 0 0 0 0 0 0 0 0 0 0 0 0
0 0 0 0 0 0 0 0 0 0 0 0 0 0 0 0 0 0 0 0 0 0 0 0 0 0 0 0 0 0 0 0 0 0 0 0 0 0 0 0 0 0 0 0
0 0 0 0 0 0 0 0 0 0 0 0 0 0 0 0 0 0 0 0 0 0 0 0 0 0 0 0 0 0 0 0 0 0 0 0 0 0 0 0 0 0 0 0
0 0 0 0 0 0 0 0 0 0 0 0 0 0 0 0 0 0 0 0 0 0 0 0 0 0 0 0 0 0 0 0 0 0 0 0 0 0 0 0 0 0 0 0
0 0 0 0 0 0 0 0 0 0 0 0 0 0 0 0 0 0 0 0 0 0 0 0 0 0 0 0 0 0 0 0 0 0 0 0 0 0 0 0 0 0 0 0
0 0 0 0 0 0 0 0 0 0 0 0 0 0 0 0 0 0 0 0 0 0 0 0 0 0 0 0 0 0 0 0 0 0 0 0 0 0 0 0 0 0 0 0
0 0 0 0 0 0 0 0 0 0 0 0 0 0 0 0 0 0 0 0 0 0 0 0 0 0 0 0 0 0 0 0 0 0 0 0 0 0 0 0 0 0 0 0
0 0 0 0 0 0 0 0 0 0 0 0 0 0 0 0 0 0 0 0 0 0 0 0 0 0 0 0 0 0 0 0 0 0 0 0 0 0 0 0 0 0 0 0
0 0 0 0 0 0 0 0 0 0 0 0 0 0 0 0 0 0 0 0 0 0 0 0 0 0 0 0 0 0 0 0 0 0 0 0 0 0 0 0 0 0 0 0
0 0 0 0 0 0 0 0 0 0 0 0 0 0 0 0 0 0 0 0 0 0 0 0 0 0 0 0 0 0 0 0 0 0 0 0 0 0 0 0 0 0 0 0
0 0 0 0 0 0 0 0 0 0 0 0 0 0 0 0 0 0 0 0 0 0 0 0 0 0 0 0 0 0 0 0 0 0 0 0 0 0 0 0 0 0 0 0
0 0 0 0 0 0 0 0 0 0 0 0 0 0 0 0 0 0 0 0 0 0 0 0 0 0 0 0 0 0 0 0 0 0 0 0 0 0 0 0 0 0 0 0
0 0 0 0 0 0 0 0 0 0 0 0 0 0 0 0 0 0 0 0 0 0 0 0 0 0 0 0 0 0 0 0 0 0 0 0 0 0 0 0 0 0 0 0
0 0 0 0 0 0 0 0 0 0 0 0 0 0 0 0 0 0 0 0 0 0 0 0 0 0 0 0 0 0 0 0 0 0 0 0 0 0 0 0 0 0 0 0
0 0 0 0 0 0 0 0 0 0 0 0 0 0 0 0 0 0 0 0 0 0 0 0 0 0 0 0 0 0 0 0 0 0 0 0 0 0 0 0 0 0 0 0
Height
5913 5915 5914 5913 5911 5909 5906 5903 5899 5896 5893 5890 5887 5884 5880 5876 5872 5868 5863 5860 5856 5853 5849 5845 5841 5838 5835 5831 5829 5826 5825 5823 5821 5820 5820 5819 5819 5819 5820 5821 5823 5825 5828 5830
5912 5912 5911 5909 5907 5905 5902 5899 5896 5892 5889 5886 5883 5880 5876 5872 5868 5864 5860 5856 5852 5848 5843 5839 5835 5831 5828 5824 5822 5819 5817 5815 5813 5811 5810 5809 5809 5809 5809 5810 5812 5813 5816 5819
5909 5909 5907 5906 5904 5902 5899 5896 5893 5889 5885 5881 5879 5876 5873 5869 5865 5861 5857 5853 5848 5844 5839 5835 5830 5826 5822 5818 5815 5812 5810 5808 5805 5803 5801 5800 5799 5799 5799 5800 5801 5802 5804 5807
5906 5905 5905 5904 5902 5899 5897 5893 5889 5885 5882 5879 5876 5873 5870 5866 5862 5858 5854 5849 5845 5840 5836 5831 5826 5822 5818 5814 5811 5807 5804 5802 5799 5797 5795 5793 5792 5791 5791 5791 5791 5792 5794 5796
5903 5902 5902 5901 5900 5897 5894 5891 5887 5883 5880 5877 5874 5871 5868 5864 5859 5855 5851 5847 5842 5838 5833 5829 5825 5820 5816 5812 5808 5805 5801 5798 5795 5792 5790 5787 5785 5784 5783 5782 5782 5782 5783 5785
5901 5901 5901 5899 5897 5895 5892 5889 5885 5882 5879 5876 5872 5869 5866 5861 5857 5853 5849 5845 5841 5837 5833 5828 5824 5820 5815 5811 5807 5804 5800 5796 5792 5789 5786 5783 5780 5778 5777 5775 5774 5774 5774 5774
5900 5900 5899 5898 5896 5894 5891 5889 5885 5881 5878 5875 5871 5867 5864 5860 5856 5852 5849 5845 5841 5837 5833 5829 5825 5820 5816 5812 5807 5803 5799 5795 5791 5787 5783 5780 5777 5775 5772 5770 5768 5767 5766 5766
5899 5900 5899 5898 5896 5893 5891 5888 5885 5882 5877 5874 5870 5866 5864 5860 5856 5853 5849 5846 5842 5838 5834 5830 5826 5822 5817 5812 5808 5803 5799 5795 5790 5786 5782 5778 5775 5772 5769 5766 5764 5762 5761 5760
5899 5900 5899 5897 5895 5893 5890 5887 5884 5881 5877 5873 5870 5867 5863 5860 5857 5854 5850 5847 5843 5839 5836 5832 5827 5823 5818 5814 5809 5804 5800 5795 5790 5786 5782 5778 5774 5771 5768 5765 5762 5759 5757 5755
5899 5899 5898 5897 5895 5893 5890 5887 5884 5881 5877 5874 5871 5868 5865 5861 5858 5855 5852 5848 5844 5841 5837 5833 5829 5824 5820 5815 5810 5806 5801 5796 5791 5787 5782 5778 5774 5771 5767 5764 5761 5758 5755 5753
5898 5898 5899 5897 5895 5893 5891 5888 5885 5882 5878 5875 5872 5871 5866 5863 5859 5856 5853 5849 5845 5842 5838 5834 5830 5826 5821 5817 5812 5807 5802 5798 5793 5788 5784 5779 5775 5771 5767 5764 5760 5758 5755 5752
5898 5899 5898 5898 5896 5894 5891 5888 5886 5883 5880 5876 5873 5874 5867 5864 5860 5857 5854 5850 5846 5843 5839 5835 5832 5827 5823 5818 5814 5809 5804 5799 5794 5789 5785 5780 5776 5772 5768 5764 5761 5758 5755 5752
5899 5899 5899 5899 5899 5895 5891 5889 5886 5883 5880 5877 5874 5875 5868 5865 5861 5858 5855 5851 5848 5844 5840 5837 5833 5828 5824 5820 5815 5810 5805 5801 5796 5791 5786 5781 5777 5773 5769 5765 5761 5758 5755 5752
5899 5900 5900 5900 5897 5894 5892 5890 5887 5884 5881 5878 5876 5873 5869 5866 5862 5859 5856 5852 5849 5845 5841 5838 5834 5830 5825 5821 5816 5812 5807 5802 5797 5792 5787 5782 5778 5774 5769 5765 5762 5758 5755 5751
5900 5900 5899 5899 5897 5895 5893 5890 5887 5885 5882 5879 5877 5873 5870 5867 5864 5860 5857 5853 5850 5846 5843 5839 5835 5831 5826 5822 5818 5813 5808 5804 5799 5794 5789 5784 5779 5775 5770 5766 5762 5758 5754 5751
5900 5900 5899 5899 5897 5896 5894 5891 5888 5886 5883 5880 5877 5874 5871 5868 5864 5861 5858 5854 5851 5847 5844 5840 5836 5832 5828 5824 5819 5815 5810 5805 5800 5795 5790 5785 5780 5776 5771 5766 5762 5758 5754 5750
5900 5900 5899 5899 5897 5896 5894 5892 5889 5886 5884 5881 5878 5875 5871 5868 5865 5862 5858 5855 5852 5848 5845 5841 5837 5833 5829 5825 5821 5817 5812 5807 5802 5797 5792 5787 5782 5777 5771 5767 5762 5757 5753 5748
5900 5899 5899 5898 5898 5896 5896 5892 5889 5887 5884 5881 5878 5875 5872 5869 5866 5862 5859 5856 5853 5849 5846 5842 5838 5835 5831 5827 5823 5818 5814 5809 5804 5799 5794 5788 5783 5778 5773 5767 5762 5757 5752 5747
5899 5899 5898 5897 5896 5895 5894 5891 5888 5886 5884 5881 5878 5876 5872 5869 5866 5863 5859 5856 5853 5850 5847 5843 5839 5836 5832 5828 5824 5820 5816 5811 5806 5801 5796 5790 5785 5779 5774 5768 5763 5758 5752 5747
5897 5897 5897 5896 5894 5893 5893 5890 5888 5886 5883 5881 5878 5875 5872 5869 5866 5864 5860 5856 5853 5850 5847 5844 5840 5837 5833 5829 5825 5821 5817 5813 5808 5803 5798 5792 5787 5781 5775 5770 5764 5758 5753 5747
5895 5894 5894 5893 5892 5891 5890 5888 5887 5886 5884 5880 5877 5875 5872 5869 5866 5864 5860 5857 5854 5851 5848 5844 5841 5837 5834 5830 5827 5823 5819 5814 5810 5805 5800 5794 5789 5783 5777 5771 5766 5760 5754 5747
5891 5890 5890 5889 5888 5889 5886 5884 5884 5883 5880 5878 5876 5874 5871 5868 5866 5863 5860 5857 5854 5851 5848 5844 5841 5838 5834 5831 5827 5824 5820 5816 5811 5806 5802 5796 5791 5786 5780 5774 5768 5761 5755 5749
5886 5886 5885 5885 5886 5884 5882 5881 5880 5878 5877 5875 5873 5871 5869 5867 5864 5861 5859 5856 5853 5850 5847 5843 5840 5837 5834 5831 5828 5824 5820 5816 5812 5808 5803 5798 5793 5788 5782 5776 5770 5764 5757 5751
5881 5880 5880 5879 5879 5879 5878 5876 5875 5874 5872 5871 5869 5867 5866 5864 5861 5859 5856 5854 5851 5848 5845 5842 5839 5836 5833 5830 5827 5824 5820 5816 5813 5808 5804 5800 5795 5790 5785 5779 5773 5767 5760 5754
5875 5875 5875 5874 5874 5874 5873 5871 5870 5869 5867 5866 5864 5863 5861 5859 5857 5855 5853 5850 5848 5845 5843 5840 5837 5835 5832 5829 5826 5823 5819 5816 5812 5809 5805 5801 5796 5792 5787 5782 5776 5770 5764 5758
5868 5870 5870 5870 5869 5868 5867 5866 5865 5863 5862 5860 5859 5857 5855 5854 5852 5850 5848 5846 5844 5842 5839 5837 5834 5832 5829 5827 5824 5821 5818 5815 5811 5808 5804 5801 5797 5793 5789 5784 5779 5774 5768 5762
Wind_Speed
17 16 16 17 17 18 20 22 24 25 25 26 26 25 24 24 23 24 24 25 25 26 27 28 28 28 28 29 30 30 31 32 32 33 34 35 37 38 38 38 37 38 38 39
14 14 14 15 16 17 18 20 22 24 24 25 24 22 21 19 19 20 21 22 23 24 25 25 26 26 27 27 27 26 26 27 28 30 31 32 34 35 35 36 37 38 38 38
11 10 11 12 13 15 16 19 21 22 23 23 21 19 16 15 16 17 18 20 21 22 23 23 24 24 23 23 23 22 23 23 24 25 26 27 29 31 32 33 33 34 36 37
7 8 9 9 11 13 16 17 19 20 20 19 19 16 15 15 16 16 18 19 20 21 21 21 21 20 20 19 18 18 18 19 19 20 21 22 23 25 27 29 31 33 34 35
6 7 7 8 10 12 13 15 16 17 17 17 15 14 14 16 17 18 18 19 19 20 19 19 20 19 17 16 16 15 15 16 17 17 17 18 19 20 22 25 28 31 32 34
4 4 5 7 8 10 12 14 15 15 15 14 13 13 14 16 18 18 19 19 18 19 19 19 19 18 17 16 16 16 16 16 16 16 15 15 15 16 18 19 21 24 27 30
3 1 2 4 7 9 11 13 13 14 13 13 13 13 14 16 17 18 18 17 17 18 18 19 18 18 18 18 17 17 17 17 17 16 14 14 14 14 14 14 16 18 20 23
4 1 2 4 6 9 10 12 13 14 14 13 13 13 14 15 16 16 16 16 17 17 18 18 18 19 19 19 19 19 19 18 18 17 16 14 14 13 12 12 12 13 15 17
8 4 3 4 7 9 11 13 14 15 15 15 13 13 13 13 14 14 15 16 17 18 18 18 19 20 20 20 21 21 21 21 20 18 17 16 14 13 12 11 10 10 9 11
8 7 6 6 8 10 12 13 14 15 15 15 14 14 14 14 13 13 15 16 17 18 18 18 18 19 20 21 21 21 22 22 21 20 19 18 16 15 13 12 11 10 9 7
9 8 7 8 9 10 11 13 14 15 15 15 14 15 15 14 14 14 15 16 17 18 18 18 18 18 19 21 22 21 22 22 22 21 21 20 18 17 16 14 12 11 10 9
10 9 8 8 9 10 11 12 13 14 15 15 14 14 14 14 14 15 16 17 17 17 17 17 17 18 19 20 21 22 22 23 22 21 21 20 19 18 17 16 14 12 11 10
10 9 8 7 9 11 12 12 13 13 13 13 13 13 14 14 15 15 15 16 17 17 17 17 17 19 19 20 21 22 22 23 23 22 22 21 20 19 18 17 15 14 12 11
10 9 7 7 8 10 11 12 13 13 12 12 12 12 13 13 14 14 15 16 17 17 17 17 18 19 20 20 21 21 23 23 23 23 22 22 21 20 19 18 16 15 14 13
9 7 6 6 7 8 9 11 13 13 13 13 12 12 12 12 12 13 15 16 16 17 17 17 17 18 20 21 21 22 23 24 24 23 23 23 22 21 20 19 17 16 16 15
7 6 5 5 6 7 9 10 11 12 13 14 14 13 13 12 12 13 14 16 16 16 17 17 18 18 19 20 21 22 23 24 24 24 24 23 23 23 21 20 18 18 17 17
5 4 3 4 5 6 7 9 10 11 12 13 14 14 13 13 13 13 14 15 16 16 17 17 18 18 19 20 21 22 23 24 25 25 25 25 25 24 23 22 20 19 19 19
2 2 2 2 3 5 6 8 9 10 11 12 13 14 14 14 13 13 13 14 15 16 16 16 17 17 18 19 20 22 23 24 25 25 26 26 26 26 25 23 22 22 22 21
1 1 1 2 3 5 6 7 8 9 10 11 12 13 14 15 14 13 13 13 14 15 15 16 16 16 17 19 20 21 22 24 24 25 27 28 28 27 26 25 24 24 24 23
5 4 4 4 5 6 6 7 8 9 10 11 12 12 14 14 14 14 13 13 14 14 14 14 15 15 16 17 18 20 21 22 24 25 27 28 28 29 28 27 26 25 25 25
8 8 7 7 7 7 7 8 8 9 10 11 11 12 13 14 14 14 13 13 13 13 13 13 13 14 15 16 17 18 20 21 22 23 25 27 28 29 29 28 27 27 26 26
12 11 11 11 11 11 10 10 10 10 11 11 12 12 12 13 14 14 14 14 13 13 13 13 13 13 13 14 15 17 18 20 21 22 23 25 27 28 29 29 28 28 27 27
14 15 15 14 14 13 13 13 13 13 13 12 13 13 13 13 14 14 14 14 14 14 14 13 13 13 13 14 15 16 17 18 20 21 22 23 25 27 28 29 29 28 28 27
16 17 17 17 17 15 15 16 16 16 16 15 15 15 14 14 14 15 15 15 15 15 15 14 14 14 14 14 15 15 16 17 18 19 20 21 23 25 26 27 28 28 28 27
20 19 19 19 19 18 17 18 18 19 19 19 18 18 17 17 16 16 17 17 16 16 16 16 15 15 15 15 16 16 16 17 17 18 18 19 20 21 23 25 26 27 28 27
24 21 19 19 20 20 20 20 20 21 21 21 21 21 20 19 19 18 19 19 19 18 18 17 17 16 16 16 16 16 16 16 17 17 17 18 18 19 20 21 23 24 26 26
Wind_Direction
258 270 281 288 295 302 308 311 313 313 312 311 312 314 318 318 316 313 312 312 310 308 306 304 301 298 296 293 290 286 283 280 277 275 273 271 269 267 265 262 259 257 254 253
261 271 281 291 303 308 312 312 312 311 312 312 315 319 322 322 319 317 317 317 315 313 312 310 308 305 302 299 297 293 290 286 283 280 276 273 270 268 265 263 260 257 255 253
259 268 279 294 304 309 312 313 313 314 316 317 320 326 328 328 327 327 328 326 324 324 323 321 317 314 310 307 304 300 296 294 291 287 283 279 273 268 265 263 261 259 256 253
255 266 284 299 308 312 315 317 318 319 321 322 326 332 338 339 340 342 340 339 337 337 336 335 333 329 325 322 319 315 311 306 301 296 292 287 279 273 269 265 263 261 258 255
247 273 294 310 317 321 325 327 327 327 327 326 333 339 347 348 351 352 351 351 349 350 351 350 347 344 341 339 338 336 331 324 316 308 303 298 290 282 276 271 266 263 259 256
237 269 299 317 328 337 340 340 340 339 338 339 346 351 356 359 360 0 1 1 360 1 0 358 358 360 359 357 355 353 349 344 337 329 319 313 307 295 286 279 274 267 262 257
190 246 330 349 353 354 355 354 354 355 356 359 2 6 6 6 5 4 5 6 8 8 7 7 9 10 10 9 7 3 360 355 351 345 337 330 327 316 304 295 285 277 269 260
151 146 45 16 9 11 13 11 11 11 12 15 17 18 13 13 12 11 13 15 15 15 13 12 14 15 14 14 13 10 7 4 1 359 356 350 346 341 330 317 306 292 277 265
146 134 84 45 33 31 27 26 24 24 25 28 29 27 26 23 22 21 22 22 21 19 19 19 19 19 20 20 19 17 16 14 13 12 8 4 1 358 354 345 333 320 298 275
133 113 83 60 51 45 39 36 35 33 32 34 37 37 36 34 33 30 27 24 22 20 20 20 20 22 23 22 21 20 20 21 21 20 19 16 12 9 4 0 357 351 337 315
122 106 85 65 57 51 45 41 40 40 40 41 41 40 40 40 38 34 27 23 19 18 19 19 20 20 21 20 20 20 19 18 18 18 19 19 17 15 14 12 7 0 358 353
119 108 93 74 63 57 51 45 41 39 39 40 40 40 38 37 35 31 26 22 19 18 18 18 18 18 18 18 18 18 18 18 18 18 17 16 16 15 13 12 10 6 360 356
118 110 97 80 66 57 51 46 43 41 39 37 36 35 34 33 31 28 24 22 19 18 17 17 15 15 16 16 16 16 16 15 16 16 15 14 13 12 11 11 10 6 2 357
118 110 95 74 60 54 50 47 45 43 39 36 33 29 27 27 26 24 22 20 20 19 18 16 15 16 17 16 16 16 15 14 15 16 15 14 12 10 8 7 6 4 1 356
115 106 91 68 54 49 46 45 44 42 41 38 33 28 25 23 22 22 21 21 21 20 19 18 17 18 19 18 18 18 18 18 18 18 17 16 14 12 10 8 5 1 357 352
113 99 84 62 45 37 37 39 40 38 37 35 32 29 25 24 22 21 22 22 22 20 20 20 20 20 21 20 20 20 21 20 19 19 19 17 15 13 11 8 5 2 358 353
116 98 72 46 27 22 21 26 31 33 32 29 27 25 22 21 21 21 21 21 20 20 20 21 23 22 22 22 21 21 21 20 19 20 19 18 17 15 13 11 8 5 1 356
122 98 65 32 14 2 10 11 18 24 25 24 22 20 19 19 19 19 18 18 19 19 20 21 21 22 22 21 21 21 21 20 19 19 19 19 17 16 15 13 11 8 3 360
215 273 336 346 342 343 355 356 0 5 10 11 12 11 11 15 18 17 16 17 16 16 17 18 19 20 21 21 20 20 19 18 18 19 19 19 18 17 15 14 12 10 7 4
264 275 290 300 309 317 333 337 342 348 352 354 358 0 1 4 8 9 10 10 11 11 11 14 17 19 19 18 18 17 16 15 16 17 18 18 18 17 17 15 13 11 9 7
268 274 280 285 290 298 308 314 322 327 335 339 342 346 348 352 356 359 360 359 359 0 4 7 10 12 13 13 13 13 12 13 13 14 16 17 17 16 16 15 15 14 12 11
268 272 275 279 283 288 294 299 307 313 319 323 326 331 334 337 341 346 349 350 349 349 352 356 358 360 1 3 4 5 7 9 10 11 13 14 15 15 16 16 16 16 16 14
266 268 270 271 274 280 287 293 297 301 307 311 314 318 320 322 325 329 333 336 338 340 342 344 346 346 346 348 351 354 356 360 3 6 7 9 11 13 14 15 16 17 18 17
265 266 268 270 273 278 283 287 291 295 300 302 304 306 309 310 312 314 317 321 325 328 330 333 334 334 335 335 338 340 343 347 352 356 360 3 6 8 11 14 16 18 19 20
265 267 271 276 281 284 285 286 290 293 294 295 296 298 300 301 303 304 305 307 310 314 318 320 323 324 326 326 326 330 332 335 339 344 350 355 359 3 7 11 14 17 19 21
270 272 275 277 281 284 285 286 287 288 289 290 291 292 293 295 297 298 298 299 300 301 304 307 310 313 314 316 319 321 324 326 329 333 338 344 350 356 1 5 10 15 18 21